Meteo Giornale » Osservazioni meteo Italia » Roma Fiumicino

ore: 19:20 - Osservazioni Meteo Roma Fiumicino
Lat. 41° 48' N Lon. 12° 14' E Alt. 2 metri s.l.m.

poco_nuvoloso Europe/Rome

10 °C

Poco Nuvoloso

Temp. 24 Ore

10 °C

16 °C

Ovest

9.3 Km/h

Dew point 4 °C

Umidità 66 %

Visibilità  10 Km

Il sole sorge alle ore 07:28

Il sole tramonta alle ore 16:42

Data e Ora Cielo e Fenomeni T °C DP °C Um. % Pres. hPa Vis. km Vento km/h
Oggi h: 19:20 poco_nuvoloso Poco Nuvoloso 10 4 66 1018 10 O 9.3
Oggi h: 18:50 poco_nuvoloso Poco Nuvoloso 12 4 57 1018 10 O/SO 9.3
Oggi h: 18:20 poco_nuvoloso Poco Nuvoloso 12 5 62 1018 10 O/SO 11.1
Oggi h: 17:50 poco_nuvoloso Poco Nuvoloso 12 5 62 1018 10 O 11.1
Oggi h: 17:20 poco_nuvoloso Poco Nuvoloso 12 5 62 1018 10 O 14.8
Oggi h: 16:50 poco_nuvoloso Poco Nuvoloso 12 5 62 1018 10 O 14.8
Oggi h: 16:20 sereno Sereno 13 5 58 1018 10 O 14.8
Oggi h: 15:50 sereno Sereno 13 6 62 1018 10 O 16.7
Oggi h: 15:20 nuvoloso Nuvoloso 14 6 58 1018 10 O 20.3
Oggi h: 14:50 nuvoloso Nuvoloso 14 7 62 1018 10 O 22.2
Oggi h: 14:20 nuvoloso Nuvoloso 14 8 67 1018 10 O 22.2
Oggi h: 13:50 nuvoloso Nuvoloso 14 8 67 1018 10 O 20.3
Oggi h: 13:20 poco_nuvoloso Poco Nuvoloso 14 8 67 1018 10 O/SO 18.5
Oggi h: 12:20 poco_nuvoloso Poco Nuvoloso 14 7 62 1018 10 O/SO 20.3
Oggi h: 11:50 poco_nuvoloso Poco Nuvoloso 14 7 62 1018 10 O/SO 24
Oggi h: 11:20 nuvoloso Nuvoloso 14 8 67 1019 10 O/SO 20.3
Oggi h: 10:50 nuvoloso Nuvoloso 14 7 62 1019 10 O/SO 24
Oggi h: 10:20 nuvoloso Nuvoloso 14 8 67 1019 10 O/SO 22.2
Oggi h: 09:50 nuvoloso Nuvoloso 14 9 71 1019 10 O/SO 20.3
Oggi h: 09:20 molto_nuvoloso Molto Nuvoloso 14 10 76 1019 10 O/SO 20.3
Oggi h: 08:50 nuvoloso Nuvoloso 13 10 81 1018 10 O/SO 20.3
Oggi h: 08:20 nuvoloso Nuvoloso 13 10 81 1018 10 O/SO 16.7
Oggi h: 07:50 nuvoloso Nuvoloso 13 9 76 1018 10 O/SO 14.8
Oggi h: 07:20 nuvoloso Nuvoloso 12 10 87 1018 10 O/SO 14.8
Oggi h: 06:50 molto_nuvoloso Molto Nuvoloso 13 11 87 1018 10 O/SO 14.8
Oggi h: 06:20 nuvoloso Nuvoloso 13 10 81 1018 10 SO 13
Oggi h: 05:50 coperto_pioggia Pioviggine Leggera 13 11 87 1018 10 S/SO 11.1
Oggi h: 05:20 coperto_pioggia Pioviggine Leggera 13 11 87 1017 10 S/SO 9.3
Oggi h: 04:50 coperto_pioggia Pioviggine Leggera 13 10 81 1017 10 SO 13
Oggi h: 04:20 coperto_pioggia Pioviggine Leggera 12 10 87 1017 10 SO 16.7
Oggi h: 03:50 coperto_pioggia Pioggia Debole 12 11 93 1017 10 SO 14.8
Oggi h: 03:20 coperto_pioggia Pioggia Debole 12 10 87 1017 7 SO 18.5
Oggi h: 02:50 coperto_pioggia Pioggia Debole 13 11 87 1017 7 O/SO 16.7
Oggi h: 02:20 coperto_pioggia Pioggia Debole 12 12 100 1017 7 O/SO 13
Oggi h: 01:50 coperto_pioggia Pioggia Debole 13 12 93 1017 6 N 5.5
Oggi h: 01:20 coperto_pioggia Pioggia 13 12 93 1017 4 N 3.7
Oggi h: 00:50 coperto_pioggia Pioggia Debole 13 12 93 1017 7 N 3.7
Oggi h: 00:20 coperto_pioggia Pioggia 13 12 93 1017 5 N 5.5
Ieri h: 23:50 coperto_pioggia Pioggia 13 12 93 1017 5 N 5.5
Ieri h: 23:20 coperto_pioggia Pioggia 13 12 93 1017 5 O/NO 9.3
Ieri h: 22:50 coperto_pioggia Pioggia 13 12 93 1016 5 O/NO 18.5
Ieri h: 22:20 coperto_pioggia Pioggia 13 12 93 1016 5 O/NO 24
Ieri h: 21:50 coperto_pioggia Pioggia Debole 14 11 82 1016 10 O/NO 20.3
Ieri h: 21:20 molto_nuvoloso Molto Nuvoloso 14 12 87 1016 9 O 9.3
Ieri h: 20:50 nuvoloso Nuvoloso 14 12 87 1015 6 O 7.4
Ieri h: 20:20 coperto_pioggia Pioggia Debole 15 13 87 1015 6 O/SO 14.8
Ieri h: 19:50 nuvoloso Nuvoloso 16 15 93 1015 6 S/SO 16.7
Ieri h: 19:20 nuvoloso Nuvoloso 16 15 93 1015 6 S 14.8
Ieri h: 18:50 nuvoloso Nuvoloso 16 15 93 1014 6 S/SE 14.8